DECAYED

STARLINK-1892, 46743 (Decayed)

Orbit data source: Space-Track

STARLINK-1892, 46743 was a payload satellite owned by SpaceX/Seattle (US) in LEO that was launched on Sat, 24 Oct 2020 UTC via an FALCON 9 launch vehicle from the Air Force Eastern Test Range (AFETR). Payload-class satellites include a variety of spacecraft equipped with specific instruments for various scientific and technological missions. These include communications satellites like Starlink; space stations such as the ISS; scientific satellites like the Hubble; Earth observation satellites from companies like Planet Labs, Umbra, and HawkEye 360; GPS; miniature CubeSats for education and research; and military/defense satellites.

Not visible in the next 10 days
Identifier
46743, 2020-074E
Orbit
Decayed
Country
Flag of USUS
Related business
Manufacturer
SpaceX/Seattle
Mission
Decayed Commercial Communications
Bus & Motor
STARLINK, Unknown motor
Mass
260 kg wet, ~248 kg dry
Launch date (UTC)
2020-10-24 (6 years ago)
Launch vehicle
FALCON 9
Launch site
Air Force Eastern Test Range (AFETR)
Object type
Payload
Rocket body
Debris
Shape & HBR
Box + 1 Pan, 10.1 m
Radar Cross Section
13.562 m², Large (>1 m²)

Expand to show TLE details & history
Last TLE update: 4 weeks ago

TLE from 4 weeks ago
0 STARLINK-1892
1 46743U 20074E   26238.36487229  .08110531  12259-4  72062-3 0  9991
2 46743  53.0168 171.1297 0007577 242.8020 117.2253 16.38250305323777
Epoch: 2026-08-26T08:45Z
TLE epoch observation values (Epoch: 2026-08-26T08:45:24.965Z)
Latitude
-0.00008°
Longitude
65.1567°
Altitude
173.659 km
Speed
7.802 km/s
True Right ascension
11h 24m 31s
True Declination
0° 00' 00"
Sunlit
Object was in daylight at epoch
Visualization orbit readout
Latitude
Unknown
Longitude
Unknown
Altitude
Unknown
Speed
Unknown
Apparent Right ascension
Unknown
Apparent Declination
Unknown
Sunlit
N/A
Visualization observer readout
Local Sidereal Time
13:12:05
Azimuth
Unknown
Elevation
Unknown
Doppler factor
Unknown
Orbital elements
Apogee altitude
175.715 km
Perigee altitude
165.791 km
Semi-major axis
6,548.89 km
Eccentricity
0.00076
Inclination
53.0168°
RAAN
171.1297°
Arg. of periapsis
242.802°
True anomaly
117.30247°
Mean anomaly
117.2253°
Eccentric anomaly
117.26389°
Mean motion
4.09536 °/min
Orbital period
87.9 mins
BSTAR
0.00072062
Loading maneuver chart data...
Computing Atmospheric mass density...

Documentation

Showing up to 5 results
|